Location: Home
(42.5358°N, 72.7383°W)
Time: 15:42:17
(UTC-05:00)

Vanguard 3 - Pass Details

Date: 01 December 2021
Orbit: 508 x 3260 km, 33.3° (Epoch: 20 January)

Event Time Altitude Azimuth Distance (km) Brightness Sun altitude
Rises 02:38:00 0° 214° (SW) 6,929 - -47.7°
Reaches altitude 10° 02:43:04 10° 207° (SSW) 6,085 - -46.8°
Exits shadow 02:50:44 26° 189° (S) 4,976 10.8 -45.4°
Maximum altitude 02:59:54 37° 149° (SSE) 4,237 10.7 -43.7°
Drops below altitude 10° 03:14:21 10° 91° (E) 5,286 11.9 -41.1°
Sets 03:18:18 0° 83° (E) 5,970 12.4 -40.4°
